Temperature
20 20 20 19 18 18 19 20 20 21 20 20 20 19 19 18 18 17 17 17 18 18 18 18 18 18 18 18 17 18 18 17 18 17 17 17 17 17 17 17 17 17 17 17 17 17 17 17 17
20 20 20 19 18 18 19 20 20 21 21 21 20 19 18 18 17 17 17 17 18 18 18 18 18 18 18 17 17 17 17 17 17 17 17 17 17 17 17 17 17 17 17 17 17 17 17 17 17
20 20 20 17 18 19 20 20 20 21 21 21 20 19 18 18 17 17 17 17 18 18 18 18 18 18 17 17 17 17 17 17 17 17 17 17 17 17 17 17 17 17 17 17 17 17 17 17 17
20 20 20 18 19 20 20 20 21 21 21 20 19 18 18 18 18 17 17 17 18 18 18 18 18 17 17 17 17 17 17 17 17 17 17 17 17 17 16 17 17 17 17 17 17 17 17 17 17
20 20 18 18 19 20 20 21 21 21 20 20 19 18 17 18 18 18 18 18 18 18 18 17 17 17 17 17 17 17 17 17 17 17 17 17 17 17 17 17 17 17 17 17 17 17 17 16 17
21 19 18 18 20 20 20 21 21 20 20 19 19 18 17 18 18 18 18 18 18 18 18 17 17 17 17 17 17 17 17 17 17 17 17 17 17 16 16 17 17 17 17 17 17 17 16 16 16
20 18 19 19 19 20 21 21 20 20 20 20 19 17 17 18 18 18 18 18 18 18 18 18 17 17 17 17 17 17 17 17 17 17 16 16 16 16 16 16 16 16 16 16 16 16 16 16 16
21 18 19 19 19 20 21 21 21 20 20 20 19 18 17 18 18 18 18 18 18 17 17 17 17 17 17 17 17 17 17 17 17 16 16 16 16 16 16 16 16 16 16 16 16 16 16 16 16
21 17 18 19 20 20 21 21 20 20 20 19 19 19 19 18 18 18 18 17 17 17 17 17 17 17 17 17 17 17 17 17 17 16 16 16 16 16 16 16 16 16 16 16 16 16 16 16 16
20 18 19 20 20 20 21 21 20 20 19 19 19 19 19 18 18 18 18 18 18 18 17 18 17 17 17 17 17 17 17 17 17 16 16 16 16 16 16 16 16 16 16 16 16 16 16 16 16
20 19 20 21 21 21 21 21 20 19 18 19 18 18 18 18 18 18 18 18 18 18 18 18 18 17 17 17 17 17 17 17 17 16 16 16 16 16 16 16 16 16 16 16 16 16 16 16 16
20 20 21 21 22 21 21 21 20 20 19 20 19 19 19 18 18 18 18 18 18 18 18 18 18 18 17 17 17 17 17 17 17 17 16 16 16 16 16 16 16 16 16 16 16 16 16 16 16
20 20 21 21 21 21 21 20 20 19 20 19 19 19 19 19 19 19 18 18 18 18 18 18 18 17 17 17 17 17 17 17 17 17 17 16 16 16 16 16 16 16 16 16 16 16 16 16 16
21 21 21 21 21 21 20 20 20 19 20 19 19 19 19 19 19 19 19 18 18 18 18 18 18 18 17 17 17 17 17 17 17 17 17 16 16 16 16 16 16 16 16 16 16 16 16 15 15
21 20 20 21 21 21 20 19 19 20 20 19 19 19 19 19 19 19 19 19 18 18 18 18 18 18 17 17 17 17 17 17 17 17 16 16 16 16 16 16 16 16 16 16 16 16 16 15 15
20 20 19 20 21 21 20 18 19 20 19 19 19 19 19 19 19 19 19 19 18 18 18 18 18 18 18 17 17 17 17 17 17 17 16 16 16 16 16 16 16 16 16 16 16 16 15 15 15
19 19 19 20 21 21 19 18 19 20 19 19 19 19 19 19 19 19 19 19 18 18 18 18 18 18 18 17 17 17 17 17 17 17 16 16 16 16 16 16 16 16 16 16 16 16 16 15 15
19 19 19 20 20 20 19 18 18 19 19 19 19 19 19 19 19 19 19 19 18 18 18 18 18 18 17 17 17 17 17 17 17 16 16 16 16 16 16 16 16 16 16 16 16 15 15 15 15
20 20 20 20 21 20 19 19 18 19 19 19 19 19 19 19 19 19 19 19 18 18 18 18 18 18 17 17 17 17 17 17 16 16 16 16 16 16 16 16 16 16 16 16 15 15 15 15 15
20 20 20 20 21 20 19 19 19 19 19 19 19 19 19 19 19 19 19 19 18 18 18 18 18 18 17 17 17 17 17 16 16 16 16 16 16 16 16 16 15 15 15 15 15 15 15 15 15
20 20 20 20 20 20 19 18 18 18 19 19 19 19 19 19 19 19 19 19 18 18 18 18 18 18 17 17 17 17 16 16 16 16 16 16 16 16 16 15 15 15 15 15 15 15 15 15 15
20 21 21 20 19 18 19 17 18 18 18 18 19 19 19 19 19 19 19 19 18 18 18 18 18 17 17 17 17 17 16 16 16 16 16 16 16 15 15 15 15 15 15 15 15 15 15 15 15
20 21 21 20 19 18 18 18 17 18 18 18 18 19 19 19 19 19 19 19 18 18 18 18 18 17 17 17 17 17 16 16 16 16 16 15 15 15 15 15 15 15 15 15 15 15 15 15 15
21 20 19 18 17 17 18 18 17 17 18 18 19 19 19 19 19 19 19 19 18 18 18 18 17 17 17 17 17 16 16 16 16 16 16 15 15 15 15 15 15 15 15 15 15 15 15 15 15
20 17 17 17 16 17 18 18 18 19 19 19 19 19 20 19 19 19 18 18 18 18 18 17 17 17 17 17 17 16 16 16 16 16 16 15 15 15 15 15 15 15 15 15 15 15 15 15 15
19 18 17 17 17 17 18 18 18 20 20 21 20 20 20 19 19 19 18 18 18 18 18 17 17 17 17 17 16 16 16 16 16 16 16 15 15 15 15 15 15 15 15 15 15 15 15 15 15
19 18 18 17 18 17 17 18 19 20 19 19 19 19 19 19 19 19 19 18 18 18 18 17 17 17 17 17 16 16 16 16 16 16 16 16 15 15 15 15 15 15 15 15 15 15 15 15 14
19 18 16 17 17 17 18 18 18 19 19 18 18 19 19 19 19 19 18 18 18 18 18 17 17 17 17 17 16 16 16 16 16 16 16 16 15 15 15 15 15 15 15 15 15 15 14 14 14
19 19 17 16 16 16 17 17 19 19 19 18 18 19 19 19 19 19 19 18 18 18 18 17 17 17 17 16 16 16 16 16 16 16 16 16 15 15 15 15 15 15 15 15 15 15 14 14 14
19 19 17 16 16 16 16 17 20 19 19 19 19 19 19 19 19 19 19 18 18 18 17 17 17 17 17 16 16 16 16 16 16 16 15 16 15 15 15 15 15 15 15 15 15 15 14 14 14
Wind_Speed
1 1 3 3 4 4 2 1 2 3 4 5 9 10 9 6 4 5 2 6 7 5 6 9 10 11 11 11 11 12 12 12 13 13 13 13 13 12 12 12 12 12 12 11 12 12 12 11 11
1 1 3 4 4 3 2 1 4 4 7 6 9 8 8 6 5 6 4 6 7 7 6 8 10 11 12 12 12 12 12 12 12 13 13 13 12 12 11 11 11 11 11 11 11 11 11 11 12
1 1 3 3 3 2 3 1 6 6 6 5 5 6 5 5 4 4 5 8 8 6 7 9 11 12 12 12 12 12 12 12 12 12 12 12 11 11 10 10 10 10 10 10 10 10 11 11 11
2 3 4 4 3 0 4 4 5 7 6 6 7 6 4 3 3 6 8 9 9 6 7 9 11 11 12 12 12 12 12 12 12 11 11 11 10 10 9 9 10 10 9 9 9 10 10 11 11
3 4 5 3 2 1 2 2 4 6 4 6 8 6 4 2 7 10 9 9 9 6 7 9 11 11 12 11 11 11 11 11 11 10 10 9 9 9 8 9 9 9 9 8 9 9 10 10 11
4 4 4 2 2 2 3 5 8 10 7 7 7 6 3 2 7 7 8 8 8 7 7 8 10 11 11 10 10 10 10 10 9 9 8 8 8 8 8 8 8 8 7 7 7 7 8 9 10
4 4 2 2 2 2 3 4 6 7 6 4 5 6 3 3 5 7 8 8 7 7 6 6 7 8 9 9 9 9 8 8 8 7 7 6 7 6 6 6 6 6 6 6 5 6 7 8 9
4 4 2 1 3 1 1 3 4 6 5 4 4 7 6 6 5 7 8 7 7 5 5 5 6 6 6 6 7 7 7 6 6 6 5 5 5 5 5 4 5 5 5 4 4 5 6 8 9
4 5 2 1 3 2 2 5 3 4 6 4 4 5 7 9 8 8 7 5 5 6 4 4 5 5 5 5 5 5 5 5 4 4 4 3 3 3 2 3 3 3 4 3 3 4 6 7 8
4 3 2 2 4 4 3 5 4 4 6 5 6 6 8 8 9 9 8 6 6 6 5 5 5 5 5 4 5 3 3 3 3 2 2 3 2 2 2 2 3 3 3 3 3 5 6 7 8
3 4 2 1 3 5 4 3 3 7 4 5 9 10 8 8 8 8 7 7 6 6 6 6 5 5 5 3 4 3 2 2 1 1 2 2 2 2 2 2 2 3 4 4 6 7 7 8 8
3 2 3 2 2 4 4 4 4 4 5 7 10 11 8 8 8 8 7 6 5 5 5 6 6 5 4 4 3 3 3 2 1 1 2 4 3 3 2 2 2 2 3 4 5 6 8 10 10
3 2 2 3 4 5 6 5 5 3 6 8 10 9 9 9 7 6 7 6 5 5 4 4 6 5 4 4 3 3 3 3 3 4 4 5 4 3 2 2 2 3 5 6 6 7 8 8 9
3 3 2 3 4 4 6 3 4 4 7 9 9 9 8 8 8 7 6 6 6 5 5 5 5 5 6 4 3 3 4 5 6 6 6 7 6 4 3 3 3 5 6 7 8 7 7 7 7
3 3 2 1 3 4 6 3 3 6 8 8 9 8 8 7 7 8 8 7 7 6 5 6 6 6 6 5 4 5 5 7 6 6 8 9 8 6 5 4 4 5 8 9 8 8 8 6 7
2 2 1 3 3 4 6 3 5 6 8 7 7 8 7 6 6 7 8 7 6 6 5 5 6 6 6 5 5 5 6 7 6 7 8 9 9 9 7 4 4 6 8 7 5 5 6 6 5
0 2 3 2 3 4 5 4 6 7 8 8 7 8 8 6 6 6 7 7 7 7 6 5 6 6 6 6 6 6 6 6 6 8 8 8 9 9 7 5 4 7 6 4 5 4 5 6 5
3 3 3 4 4 4 4 5 6 7 8 9 7 7 8 8 8 8 7 8 7 6 6 6 6 7 6 5 5 4 4 4 5 6 6 7 8 8 7 5 5 6 5 4 4 5 5 4 4
3 2 3 3 4 4 5 5 7 8 7 8 7 8 8 9 8 8 8 8 8 6 6 6 6 6 6 4 4 3 2 2 2 3 5 7 7 7 7 4 4 4 4 4 5 5 5 4 4
3 1 2 2 3 4 5 5 7 8 10 10 11 10 10 8 7 7 7 7 8 7 6 7 7 6 6 4 4 3 3 2 1 2 4 6 6 6 6 5 4 4 4 5 5 5 3 2 2
3 5 4 3 1 1 2 2 4 5 6 7 9 9 10 12 11 10 8 8 8 8 8 8 7 7 6 6 5 4 4 3 2 2 1 2 5 6 6 6 5 4 4 4 4 4 4 3 1
4 5 4 3 2 3 3 3 6 6 6 8 9 9 10 11 10 10 9 9 8 8 7 7 7 6 6 7 7 6 4 3 2 1 1 1 3 5 6 6 6 4 3 3 3 3 3 4 2
5 5 4 3 2 1 2 3 6 3 7 10 10 11 11 11 12 12 11 10 8 7 7 7 7 6 6 7 8 7 5 3 2 1 2 2 2 3 5 6 5 4 3 3 3 4 3 2 3
1 2 3 3 3 3 5 4 5 5 10 10 11 11 11 11 12 11 10 8 7 6 7 7 7 5 6 6 7 7 7 5 4 3 3 2 1 1 3 5 5 5 3 3 3 4 5 4 4
4 4 2 3 1 5 3 4 6 8 9 11 12 11 10 10 11 11 10 9 8 8 7 7 7 5 5 6 6 7 7 7 7 5 4 3 2 1 2 3 4 4 4 5 5 4 4 4 4
2 6 6 4 4 4 1 4 6 5 5 7 9 9 9 10 10 11 12 11 10 9 8 7 7 6 6 6 5 5 6 5 4 5 5 5 3 3 3 4 4 5 5 5 5 3 3 4 4
3 3 6 5 2 2 3 3 4 3 1 3 6 8 10 10 11 11 11 10 10 10 9 9 8 6 6 6 6 5 5 5 5 5 5 4 4 4 5 5 5 5 5 5 5 3 3 4 4
5 5 4 3 2 2 3 2 4 4 2 3 6 8 9 9 9 10 10 10 10 9 8 8 8 7 6 6 6 5 5 5 6 6 6 5 4 4 5 4 4 4 4 5 4 4 3 5 3
1 2 3 3 4 4 2 5 5 8 7 7 7 8 9 10 11 10 10 10 9 8 8 8 8 7 6 6 5 5 5 5 5 5 5 5 4 5 5 5 5 5 4 4 4 4 4 5 3
5 5 6 4 3 3 3 6 5 5 5 6 6 7 8 9 9 9 9 9 8 8 8 8 7 7 7 6 6 6 5 5 5 5 4 4 4 4 5 5 5 5 5 4 5 5 5 5 4
Wind_Direction
284 16 86 57 53 52 45 11 121 88 64 57 70 79 83 66 85 124 157 132 119 111 103 103 100 100 100 100 97 95 93 94 95 96 96 96 95 94 93 92 91 89 85 82 80 80 76 72 69
32 69 71 58 75 68 28 30 88 93 133 120 77 74 75 69 76 108 117 131 119 113 105 107 103 104 103 101 98 95 94 94 96 98 97 97 97 94 93 93 93 90 86 82 80 79 76 70 64
310 138 85 66 77 133 132 148 113 94 104 97 81 59 75 95 103 123 147 138 117 106 105 110 107 107 106 103 100 98 97 96 97 97 97 97 97 95 94 93 93 93 88 83 80 77 73 70 63
57 47 55 69 74 180 149 161 120 103 66 63 95 70 62 73 119 134 139 131 118 111 109 110 106 107 108 105 103 102 101 102 100 99 97 95 93 94 96 95 94 94 90 84 80 77 75 69 61
72 71 57 53 64 41 90 115 108 102 82 77 92 91 67 39 111 126 134 129 126 122 118 115 111 108 108 108 107 104 105 104 102 102 100 98 96 95 96 96 96 96 94 90 82 77 74 68 62
57 65 75 75 77 70 55 78 88 91 104 101 93 102 95 121 121 133 132 130 132 131 125 120 116 114 112 112 111 110 108 107 107 107 105 103 100 99 101 101 102 102 99 93 85 77 72 70 67
104 89 113 134 107 79 109 92 90 104 103 101 111 104 121 157 147 138 130 130 132 132 126 120 121 119 120 120 120 118 116 113 112 111 106 104 104 107 109 110 112 109 102 94 84 76 71 69 66
124 98 75 95 114 92 97 88 98 105 104 108 109 129 156 182 154 125 124 127 133 139 141 145 137 131 129 129 130 130 127 123 118 112 107 105 107 116 117 116 121 113 102 92 70 75 74 68 64
88 79 92 177 149 148 99 88 64 68 87 65 71 129 154 156 134 122 119 121 136 149 161 165 161 159 158 153 146 142 133 127 120 110 109 100 94 120 131 130 120 108 95 88 80 78 74 65 66
82 107 199 198 159 141 113 105 113 88 78 80 85 102 133 137 135 137 140 142 149 159 172 175 177 178 171 160 139 140 130 116 108 110 120 125 118 140 132 115 114 89 74 72 71 65 68 70 74
123 152 162 83 120 120 107 83 98 116 109 152 146 147 147 141 141 145 150 156 163 167 169 171 176 172 166 151 138 137 120 107 115 158 180 161 133 122 108 94 72 55 57 51 49 58 69 81 85
114 127 133 117 103 106 114 105 86 110 161 168 155 153 152 152 155 156 159 165 157 153 159 164 163 161 159 141 132 124 110 89 77 149 143 136 125 116 117 99 72 58 62 67 67 72 82 89 89
100 135 108 117 106 115 113 108 108 115 140 143 142 148 158 162 165 166 163 158 155 152 158 159 151 151 141 130 120 103 98 86 74 77 103 122 119 113 107 96 78 69 83 90 93 87 87 87 88
147 128 127 126 117 110 112 118 112 159 149 145 150 159 162 163 167 165 157 154 158 154 151 144 142 143 128 123 118 113 96 88 74 69 81 104 111 109 103 87 77 74 89 97 101 98 93 87 86
127 105 72 162 152 144 114 85 165 173 154 156 166 164 163 168 168 167 172 168 163 163 153 142 137 128 124 122 121 108 99 90 75 66 72 86 97 99 95 90 84 85 96 95 94 90 87 86 83
81 98 157 246 173 164 124 186 219 175 159 167 170 172 169 169 169 168 168 164 158 155 146 143 131 126 124 118 109 100 95 88 76 72 74 78 87 93 91 89 86 97 99 98 96 89 87 82 80
67 176 196 232 203 162 147 195 213 185 169 177 178 179 172 172 179 175 170 166 157 153 144 129 120 127 124 114 101 95 90 83 77 73 76 78 81 91 95 92 92 101 100 99 104 91 99 97 89
210 199 198 205 209 164 170 202 205 196 180 185 184 185 176 177 187 180 173 165 157 149 143 131 125 127 122 108 93 81 71 62 67 71 76 82 82 90 95 92 90 98 96 88 97 98 90 99 102
183 187 207 228 208 171 191 208 207 202 190 188 187 189 187 190 191 178 169 158 152 151 149 141 136 135 128 117 111 103 92 76 66 68 79 82 85 90 91 93 90 97 102 109 112 106 96 90 102
189 179 239 254 213 183 200 228 217 201 196 191 190 192 190 185 178 177 171 163 162 166 165 153 151 151 149 141 138 137 132 118 113 71 70 80 89 93 98 95 99 101 100 98 103 107 107 109 112
209 186 208 212 251 249 148 283 251 229 212 202 197 192 189 186 182 180 175 172 168 170 170 166 165 160 155 142 118 98 77 60 52 48 47 57 94 98 101 105 105 104 109 120 123 122 122 133 70
221 217 195 181 160 246 182 238 262 224 214 208 203 194 193 192 182 178 176 176 177 179 171 162 166 158 156 146 139 138 139 149 182 181 162 74 88 100 103 108 109 107 108 117 127 120 119 131 130
215 215 199 196 170 262 233 196 270 212 218 220 210 201 196 192 183 180 178 180 177 170 162 163 162 159 161 156 152 147 151 165 162 141 123 98 61 90 105 109 106 107 109 115 108 100 96 111 128
151 44 25 46 83 271 230 190 265 217 214 212 208 204 198 190 186 182 177 170 166 162 155 154 157 166 167 160 157 157 161 161 153 151 144 133 98 71 96 105 106 108 111 112 110 104 98 93 92
79 88 36 354 338 256 222 179 244 233 214 200 198 199 195 182 176 172 167 166 164 162 161 159 159 162 166 159 164 169 170 169 172 172 168 158 148 142 138 118 114 112 113 109 105 102 99 100 100
188 149 164 198 226 272 284 219 255 254 211 196 191 186 179 174 174 175 176 174 171 167 164 163 167 169 167 163 168 171 171 175 177 177 172 172 173 175 161 137 126 119 117 114 107 105 105 101 106
176 204 184 164 234 260 275 282 320 14 81 171 172 171 177 178 176 176 176 174 172 171 173 173 168 165 169 171 168 169 174 173 175 174 169 168 171 168 151 138 131 125 122 119 112 105 107 102 98
178 173 108 126 181 259 289 259 237 238 221 184 170 177 184 179 176 177 176 177 176 176 176 171 169 170 170 168 172 172 169 166 166 165 168 172 172 159 150 146 142 137 131 122 116 112 113 105 104
188 155 136 145 166 169 244 268 232 209 204 190 188 180 184 181 179 179 179 179 175 171 171 172 174 169 168 172 170 160 162 159 156 160 169 169 165 162 160 158 153 147 142 136 129 129 125 119 110
184 183 152 160 228 181 192 263 278 203 190 180 186 181 183 181 178 177 176 172 172 172 175 177 178 177 177 173 164 163 159 153 154 160 164 155 151 160 162 156 152 156 152 147 143 142 132 132 131
Height
1520 1520 1520 1520 1522 1529 1531 1525 1520 1519 1520 1521 1520 1520 1524 1528 1532 1539 1537 1536 1537 1536 1536 1536 1535 1535 1534 1534 1534 1533 1533 1532 1532 1532 1533 1533 1533 1533 1534 1534 1534 1534 1534 1534 1534 1534 1534 1534 1533
1520 1520 1521 1521 1527 1538 1534 1524 1521 1519 1521 1521 1522 1524 1526 1530 1532 1534 1535 1537 1537 1537 1537 1536 1536 1536 1535 1535 1535 1534 1534 1534 1533 1533 1534 1534 1534 1534 1535 1535 1535 1535 1536 1535 1535 1535 1535 1535 1535
1520 1520 1522 1523 1530 1535 1531 1524 1521 1520 1521 1520 1524 1526 1529 1532 1534 1535 1536 1537 1538 1538 1538 1537 1537 1537 1537 1536 1536 1535 1535 1535 1535 1535 1535 1535 1535 1535 1536 1536 1536 1536 1536 1536 1536 1536 1536 1536 1536
1521 1522 1522 1527 1531 1527 1524 1522 1520 1521 1522 1523 1525 1529 1532 1534 1534 1536 1537 1538 1539 1539 1539 1539 1538 1538 1538 1537 1537 1537 1537 1537 1537 1537 1537 1537 1537 1537 1537 1537 1537 1538 1537 1537 1537 1538 1538 1538 1538
1521 1521 1526 1532 1529 1525 1522 1521 1520 1521 1524 1526 1526 1531 1534 1536 1536 1537 1538 1539 1540 1540 1540 1540 1540 1539 1539 1539 1539 1539 1538 1538 1538 1538 1539 1539 1538 1538 1538 1538 1538 1539 1539 1539 1539 1539 1539 1539 1539
1522 1522 1533 1537 1531 1525 1523 1522 1522 1523 1526 1528 1529 1532 1536 1537 1538 1539 1539 1541 1541 1541 1541 1541 1541 1541 1541 1540 1540 1540 1540 1540 1540 1540 1540 1540 1540 1540 1540 1540 1540 1540 1540 1540 1540 1540 1540 1540 1540
1523 1526 1533 1533 1532 1528 1525 1523 1524 1525 1527 1529 1530 1533 1537 1538 1539 1540 1541 1542 1543 1543 1543 1543 1543 1542 1542 1542 1542 1542 1542 1542 1542 1542 1542 1542 1542 1541 1541 1541 1541 1541 1541 1541 1541 1542 1542 1542 1542
1521 1526 1531 1533 1532 1530 1525 1524 1525 1526 1528 1530 1530 1533 1536 1538 1540 1541 1542 1543 1544 1544 1544 1544 1544 1544 1544 1544 1544 1544 1544 1544 1543 1543 1543 1543 1543 1543 1543 1543 1543 1543 1543 1543 1543 1543 1543 1543 1543
1522 1530 1535 1532 1530 1528 1525 1525 1527 1528 1528 1530 1530 1532 1535 1538 1540 1542 1543 1544 1544 1545 1545 1546 1546 1546 1546 1546 1546 1546 1546 1545 1545 1545 1545 1545 1544 1544 1544 1544 1544 1544 1544 1544 1544 1544 1544 1544 1544
1522 1532 1530 1525 1524 1525 1525 1526 1528 1529 1530 1532 1532 1534 1536 1538 1540 1542 1543 1544 1545 1546 1546 1547 1547 1547 1547 1547 1547 1547 1547 1547 1547 1547 1546 1546 1546 1546 1546 1545 1545 1545 1545 1545 1545 1545 1545 1545 1545
1523 1527 1525 1524 1523 1524 1525 1527 1528 1530 1533 1533 1533 1535 1537 1539 1541 1542 1543 1544 1545 1546 1547 1547 1548 1548 1549 1549 1549 1549 1549 1548 1548 1548 1548 1547 1547 1547 1547 1547 1547 1547 1547 1546 1546 1546 1546 1547 1547
1523 1524 1523 1524 1524 1525 1526 1527 1529 1530 1532 1533 1533 1535 1537 1539 1541 1542 1543 1545 1546 1547 1547 1548 1549 1549 1550 1550 1550 1550 1550 1550 1549 1549 1549 1549 1548 1548 1548 1548 1549 1548 1548 1548 1548 1548 1548 1548 1548
1524 1524 1524 1524 1525 1525 1527 1528 1529 1531 1532 1533 1535 1536 1537 1539 1541 1542 1544 1545 1546 1547 1548 1549 1549 1550 1551 1551 1551 1551 1551 1551 1550 1550 1550 1550 1550 1550 1549 1550 1550 1550 1550 1550 1550 1550 1550 1550 1550
1523 1524 1525 1525 1526 1527 1528 1530 1530 1532 1533 1534 1535 1537 1538 1539 1541 1542 1543 1545 1546 1547 1549 1549 1550 1551 1551 1552 1552 1552 1552 1552 1552 1551 1551 1551 1551 1551 1551 1551 1551 1551 1551 1551 1551 1551 1552 1552 1552
1524 1526 1527 1526 1526 1527 1529 1533 1531 1531 1533 1534 1535 1537 1538 1539 1540 1541 1543 1544 1546 1547 1548 1550 1550 1551 1552 1552 1553 1553 1553 1553 1552 1552 1552 1552 1552 1552 1552 1552 1552 1552 1553 1553 1553 1553 1553 1553 1553
1525 1529 1534 1528 1525 1527 1532 1539 1532 1531 1533 1534 1535 1536 1538 1539 1540 1541 1543 1544 1546 1547 1549 1550 1551 1552 1552 1553 1553 1553 1554 1554 1553 1553 1553 1553 1553 1553 1553 1553 1554 1554 1554 1554 1554 1554 1554 1555 1554
1531 1536 1535 1530 1525 1525 1530 1535 1530 1530 1532 1533 1534 1535 1537 1538 1540 1541 1542 1544 1546 1547 1548 1550 1551 1552 1552 1553 1553 1554 1554 1554 1554 1554 1554 1554 1554 1554 1554 1555 1555 1555 1555 1555 1556 1556 1556 1556 1556
1536 1535 1533 1531 1525 1525 1530 1531 1529 1529 1530 1531 1532 1534 1535 1536 1538 1540 1542 1543 1545 1547 1548 1549 1550 1551 1552 1553 1554 1554 1554 1554 1554 1554 1555 1555 1555 1555 1555 1555 1556 1556 1556 1556 1557 1557 1557 1557 1557
1526 1529 1531 1528 1523 1526 1529 1530 1528 1527 1528 1529 1530 1532 1533 1535 1537 1539 1540 1542 1544 1546 1547 1548 1550 1551 1552 1553 1553 1554 1554 1554 1555 1555 1555 1555 1555 1555 1556 1556 1556 1557 1557 1557 1558 1558 1558 1558 1559
1524 1530 1530 1526 1522 1525 1529 1529 1525 1524 1525 1526 1527 1529 1530 1533 1535 1537 1539 1541 1543 1544 1546 1548 1549 1550 1551 1552 1553 1554 1554 1555 1555 1555 1555 1555 1556 1556 1556 1556 1556 1557 1557 1558 1558 1559 1559 1559 1560
1524 1528 1528 1528 1524 1524 1528 1533 1528 1524 1523 1525 1525 1526 1528 1530 1532 1535 1537 1539 1541 1543 1545 1546 1548 1549 1551 1552 1553 1553 1554 1554 1555 1555 1555 1556 1556 1556 1556 1556 1557 1557 1558 1558 1559 1559 1559 1559 1560
1527 1520 1520 1523 1531 1537 1532 1545 1531 1524 1523 1523 1523 1524 1526 1528 1530 1532 1535 1537 1539 1541 1543 1545 1547 1548 1550 1551 1551 1552 1553 1554 1554 1555 1555 1556 1556 1556 1557 1557 1557 1558 1558 1558 1559 1559 1560 1560 1560
1519 1515 1518 1521 1528 1535 1533 1540 1535 1524 1525 1521 1520 1521 1522 1525 1527 1530 1532 1535 1537 1539 1541 1543 1545 1547 1548 1549 1550 1551 1552 1553 1554 1555 1555 1556 1556 1557 1557 1557 1557 1558 1558 1558 1559 1559 1559 1560 1560
1514 1518 1521 1526 1533 1544 1533 1538 1536 1525 1518 1515 1515 1517 1519 1522 1525 1527 1530 1533 1536 1538 1540 1542 1544 1545 1547 1548 1549 1550 1551 1552 1553 1554 1555 1555 1556 1556 1557 1557 1557 1557 1558 1558 1558 1559 1559 1559 1559
1518 1531 1545 1546 1550 1544 1528 1532 1529 1512 1508 1508 1510 1513 1515 1519 1522 1525 1528 1531 1533 1536 1538 1540 1542 1543 1545 1547 1548 1549 1550 1551 1552 1553 1554 1554 1555 1556 1556 1557 1557 1557 1558 1558 1558 1559 1559 1559 1559
1520 1528 1546 1553 1551 1543 1529 1531 1520 1505 1504 1504 1507 1510 1513 1516 1519 1522 1525 1528 1531 1533 1536 1538 1540 1542 1543 1545 1546 1548 1549 1550 1551 1552 1553 1553 1554 1555 1556 1556 1557 1557 1557 1558 1558 1558 1559 1559 1559
1520 1525 1525 1536 1537 1541 1535 1523 1513 1505 1504 1504 1506 1509 1511 1514 1517 1520 1523 1526 1529 1531 1534 1536 1538 1540 1542 1543 1545 1547 1548 1549 1550 1551 1552 1552 1553 1554 1555 1556 1556 1557 1557 1558 1558 1558 1558 1559 1559
1513 1518 1529 1535 1544 1547 1537 1529 1525 1512 1509 1506 1506 1507 1509 1512 1515 1518 1521 1524 1527 1529 1532 1534 1536 1538 1540 1542 1543 1545 1546 1547 1548 1550 1551 1551 1552 1553 1554 1555 1556 1556 1557 1557 1557 1558 1558 1559 1559
1516 1519 1523 1532 1535 1544 1545 1535 1509 1507 1505 1505 1505 1506 1508 1510 1513 1515 1519 1522 1525 1528 1530 1533 1535 1537 1538 1540 1542 1543 1544 1546 1547 1548 1549 1550 1551 1552 1553 1554 1555 1555 1556 1557 1557 1557 1558 1558 1558
1509 1513 1521 1534 1535 1535 1539 1531 1502 1502 1502 1503 1504 1505 1507 1509 1512 1514 1517 1520 1523 1525 1528 1531 1533 1535 1537 1538 1540 1541 1543 1544 1545 1546 1548 1549 1550 1551 1552 1553 1554 1554 1555 1556 1556 1556 1557 1557 1558